探险者 7(EXPLORER 7)

导读

EXPLORER 7(探索者7号)是美国探索者系列科学卫星,于1959年10月13日在卡纳维拉尔角空军基地由丘诺II号运载火箭发射升空。卫星质量约42千克,运行在倾角50.3°、高度476×652公里的近地轨道,承担早期空间科学探测任务,是冷战初期美国航天探索的重要成果,为人类理解近地空间环境积累了首批实测数据,在航天发展史上具有里程碑意义。

Basic Information
目录编号:
22
目录名称:
EXPLORER 7
国际标识:
1959-009A
轨道中心:
EARTH
卫星名称:
探险者 7
卫星全名:
--
卫星状态:
在轨 (已飞行24434 天)
发射日期:
1959-10-13 UTC
国别 :
美国 (US)
星等 :
--
Orbit Information
数据来源 国际轨道数据
星历时间: 2026-09-05T19:51:52+0800
8小时前
查看轨道信息
半长轴: 6852.317km
偏心率: 0.0074374
轨道倾角: 50.241°
近地点辐角 89.732°
升交点赤经 62.491°
平近点角 271.216°
近地点: 423.216km
远地点: 525.144km
周期: 94.084分钟
每日圈数: 15.30547
Detailed Information
使用方式:
暂无
2D Orbit Map
3D Orbit Map
Orbit Altitude Analysis Chart
Orbit Inclination Analysis Chart
Orbit Comprehensive Analysis Chart
View Comprehensive Chart
Conjunction Data List
Event ID Objects TCA Miss Dist (km) Collision Risk Probability Collision Risk Index (CRI) Action
CDM_260907-200600-002206-844924
2026-09-07T
20:06:14+0000
0.315 km
远距离
4.694941E-4 高风险 0.88
CDM_260903-133200-002206-574722
2026-09-03T
13:32:11+0000
1.463 km
极远距离
6.188249E-6 低风险 0.51
CDM_260908-101300-002206-846221
2026-09-08T
10:13:46+0000
2.662 km
极远距离
1.556063E-6 低风险 0.39
CDM_260907-091700-002205-974623
2026-09-07T
09:17:46+0000
2.718 km
极远距离
1.292696E-6 低风险 0.37
CDM_260908-084100-002205-913521
2026-09-08T
08:41:37+0000
2.896 km
极远距离
8.803906E-7 极低风险 0.34